Regional Weather Roundup
Issued by NWS

Home | Current Version | Previous Version | Text Only | Print | Product List | Glossary On
Versions: 1 2 3 4 5 6 7 8 9 10 11 12 13 14 15 16 17 18 19 20 21 22 23 24 25 26 27 28 29 30 31 32 33 34 35 36 37 38 39 40 41 42 43 44 45 46 47 48 49 50
000
ASUS43 KFSD 280702
RWRSD

WEATHER ROUNDUP FOR SOUTH DAKOTA
NATIONAL WEATHER SERVICE SIOUX FALLS SD
100 AM CST FRI NOV 28 2014

NOTE: "FAIR" INDICATES FEW OR NO CLOUDS BELOW 12,000 FEET WITH NO
SIGNIFICANT WEATHER AND/OR OBSTRUCTIONS TO VISIBILITY.


SDZ001>005-009-010-012>017-280800-
NORTHWEST AND NORTH CENTRAL SOUTH DAKOTA

CITY           SKY/WX    TMP DP  RH WIND       PRES   REMARKS
BUFFALO          N/A     39  27  62 W5        29.66F
FAITH            N/A     25  19  78 S14       29.77F WCI  13
MOBRIDGE       PTCLDY    12   8  84 E13       29.81F WCI  -3
$$

SDZ012>016-024>037-041>051-057-063-072>074-280800-
SOUTHWEST AND SOUTH CENTRAL SOUTH DAKOTA

CITY           SKY/WX    TMP DP  RH WIND       PRES   REMARKS
RAPID CTY ARPT MOCLDY    39  26  59 E3        29.80F
PIERRE         CLEAR     19  15  84 CALM      29.83F
CUSTER         MOCLDY    40  25  55 SW6       29.90F
ELLSWORTH AFB  MOCLDY    40  28  60 W3        29.80F
PHILIP         CLOUDY    24  20  84 S3        29.80F
PINE RIDGE     PTCLDY    38  29  70 SW9       29.89F
WINNER         FAIR      41  27  57 SW8       29.83F
$$

SDZ004>011-016>023-039-040-280800-
NORTHEAST SOUTH DAKOTA

CITY           SKY/WX    TMP DP  RH WIND       PRES   REMARKS
ABERDEEN       PTCLDY    12   7  80 E5        29.94F WCI   4
WATERTOWN      PTCLDY    14   8  77 SE10      29.92F WCI   1
SISSETON         N/A      7   4  87 S12       30.02F WCI  -8
$$

SDZ017-020-022-023-036>040-048>070-280800-
SOUTHEAST SOUTH DAKOTA

CITY           SKY/WX    TMP DP  RH WIND       PRES   REMARKS
SIOUX FALLS    MOCLDY    17  11  77 S13       29.96F WCI   4
HURON          PTCLDY    19  13  77 SE10      29.89F WCI   7
MITCHELL       CLEAR     21  15  78 SE13      29.91F WCI   9
YANKTON        PTCLDY    21  16  79 SE8       29.97F WCI  12
$$

ABBREVIATIONS USED IN REMARKS
   TC - TEMPERATURE IN CELSIUS
  WCI - WIND CHILL INDEX
   HX - HEAT INDEX
  VSB - VISIBILITY




USA.gov is the U.S. government's official web portal to all federal, state and local government web resources and services.